Regional Weather Roundup
Issued by NWS

Home | Current Version | Previous Version | Text Only | Print | Product List | Glossary Off
Versions: 1 2 3 4 5 6 7 8 9 10 11 12 13 14 15 16 17 18 19 20 21 22 23 24 25 26 27 28 29 30 31 32 33 34 35 36 37 38 39 40 41 42 43 44 45 46 47 48 49 50

000
ASUS43 KMPX 050710
RWRMN
WEATHER ROUNDUP FOR MINNESOTA
NATIONAL WEATHER SERVICE TWIN CITIES/CHANHASSEN MN
100 AM CST THU MAR 05 2015


NOTE: "FAIR" INDICATES FEW OR NO CLOUDS BELOW 12,000 FEET WITH NO
SIGNIFICANT WEATHER AND/OR OBSTRUCTIONS TO VISIBILITY. N/A MEANS
CURRENT SKY AND/OR WEATHER CONDITIONS ARE NOT AVAILABLE.

MNZ060>063-068>070-050800-
   Twin Cities Metro

CITY           SKY/WX    TMP DP  RH WIND       PRES   REMARKS
TWIN CITIES    CLEAR     -3 -13  62 NW8       30.43S WCI -18
ST PAUL        CLEAR     -1 -11  62 NW9       30.45S WCI -16
CRYSTAL        CLEAR     -3 -12  65 W8        30.42S WCI -18
BLAINE         CLEAR     -4 -11  71 W7        30.41S WCI -18
LAKEVILLE      CLEAR     -8 -15  71 W6        30.42S WCI -21
EDEN PRAIRIE   CLEAR     -2 -11  65 NW9       30.42S WCI -18
SOUTH ST PAUL  CLEAR     -1 -11  61 W5        30.44R WCI -11
LAKE ELMO      FAIR      -2 -11  65 NW5       30.42S WCI -12
$$
MNZ001>005-007-008-013>017-022>024-027-028-050800-
   Northwest Minnesota

CITY           SKY/WX    TMP DP  RH WIND       PRES   REMARKS
BEMIDJI        CLEAR    -15 -19  80 W3        30.32S
HALLOCK        CLEAR    -13 -18  77 SW7       30.36S WCI -29
ROSEAU         CLEAR    -11 -17  77 SW6       30.33S WCI -25
WARROAD        CLEAR    -11 -17  77 SW6       30.31F WCI -25
THIEF RVR FALL CLEAR    -11 N/A N/A CALM      30.34F
CROOKSTON      CLEAR     -9 -15  77 W5        30.41S WCI -21
FOSSTON        CLEAR    -20 -26  76 SW3       30.36S
DETROIT LAKES  CLEAR     -8 -11  84 W5        30.37R WCI -19
MOORHEAD       FAIR      -6 -11  77 SW5       30.43S WCI -17
PARK RAPIDS    CLEAR    -14 -19  79 CALM      30.34R
MAHNOMEN       FAIR     -10 -15  78 W7        30.37S WCI -24
$$
MNZ006-009>011-018-025>026-050800-
   North Central Minnesota

CITY           SKY/WX    TMP DP  RH WIND       PRES   REMARKS
BAUDETTE       CLEAR    -14 -19  79 SW5       30.30S WCI -26
FLAG ISLAND    CLEAR    -13 -18  77 S3        30.29S
INTL FALLS     CLEAR    -15 -21  74 SW5       30.31R WCI -27
WASKISH        CLEAR    -11 -17  77 SW6       30.33S WCI -25
BIG FORK       FAIR     -20 -26  76 CALM      30.32R
LONGVILLE      CLEAR    -22 -27  76 CALM      30.36R
GRAND RAPIDS   CLEAR     -9 -17  70 W6        30.32R WCI -23
CRANE LAKE     CLEAR    -24 -29  76 CALM      30.34R
ORR            CLEAR    -15 -20  76 CALM      30.28R
COOK           CLEAR    -17 -20  83 CALM      30.31R
WALKER         FAIR     -12 -16  82 W3        30.34S
$$
MNZ012-019>021-037-050800-
   Northeast Minnesota

CITY           SKY/WX    TMP DP  RH WIND       PRES   REMARKS
DULUTH         CLEAR    -10 -18  67 W6        30.31R WCI -23
ELY            CLEAR    -15 -20  76 SW5       30.28R WCI -27
HIBBING        CLEAR    -21 -26  77 SW3       30.32R
EVELETH        CLEAR    -13 -18  77 W7        30.32R WCI -29
DULUTH HARBOR  CLEAR     -4 -15  59 CALM      30.42S
TWO HARBORS    CLEAR     -8 -15  71 CALM      30.31S
SILVER BAY     CLEAR    -11 -18  70 CALM      30.31R
GRAND MARAIS     N/A     -2 -14  56 NW15G23   30.34R WCI -22
G MARAIS ARPRT PTCLDY    -9 -18  64 NW3       30.19S
$$
MNZ029>031-032-039>041-046>048-054>057-064-050800-
   West Central Minnesota

CITY           SKY/WX    TMP DP  RH WIND       PRES   REMARKS
FERGUS FALLS   CLEAR     -9 -17  70 CALM      30.47R
WHEATON        CLEAR    -11 -17  77 SW6       30.47S WCI -25
MORRIS         CLEAR    -11 -17  77 W6        30.43F WCI -25
ALEXANDRIA     CLEAR    -13 -17  82 SW7       30.39S WCI -29
ELBOW LAKE     FAIR     -13 -17  81 SW5       30.42S WCI -25
WADENA         CLEAR    -13 -17  84 W5        30.37S WCI -25
GLENWOOD       CLEAR    -13 -17  84 W6        30.41S WCI -27
APPLETON       CLEAR    -13 -18  77 W5        30.46F WCI -25
BENSON         CLEAR    -11 -18  70 W3        30.44S
ORTONVILLE       N/A     -9 -17  70 NW5       30.45F WCI -21
MADISON        CLEAR     -8 -15  71 W7        30.47S WCI -22
WILLMAR        FAIR      -6 -11  77 W6        30.44F WCI -18
$$
MNZ033>034-036-042>043-049>051-058-059-050800-
   Central Minnesota

CITY           SKY/WX    TMP DP  RH WIND       PRES   REMARKS
ST CLOUD       PTCLDY    -7 -14  71 W6        30.42S WCI -20
SAUK CENTRE    FAIR     -11 -15  82 W3        30.42S
PAYNESVILLE    CLEAR    -15 -19  84 SW7       30.43S WCI -31
AITKIN         CLEAR     -8 -17  65 W5        30.37R WCI -19
PINE RIVER     CLEAR    -17 -22  76 CALM      30.39S
BRAINERD       CLEAR    -16 -21  78 CALM      30.39R
STAPLES        PTCLDY   -15 -18  84 CALM      30.38S
LONG PRAIRIE   FAIR     -17 -22  76 CALM      30.40S
LITTLE FALLS   PTCLDY   -17 -24  70 CALM      30.42S
LITCHFIELD     CLEAR     -6  -9  84 CALM      30.43S
BUFFALO        CLEAR     -7 -13  75 W5        30.44S WCI -18
MAPLE LAKE     CLEAR     -7 -12  80 W3        30.43S
$$
MNZ037-044-045-052-053-050800-
   East Central Minnesota

CITY           SKY/WX    TMP DP  RH WIND       PRES   REMARKS
PRINCETON      PTCLDY    -9 -15  77 CALM      30.41S
MORA           CLEAR    -15 -22  70 CALM      30.42S
CAMBRIDGE      CLEAR     -8 -17  65 CALM      30.40S
RUSH CITY      PTCLDY   -10 -16  75 CALM      30.42S
MOOSE LAKE     CLEAR    -15 -22  70 CALM      30.37R
HINCKLEY       FAIR     -13 -15  92 W5        30.40S WCI -25
CLOQUET        CLEAR     -9 -18  64 W7        30.34R WCI -24
MCGREGOR       CLEAR     -8 -15  71 W3        30.38R
$$
MNZ071>073-080-081-089-090-097-098-050800-
   Southwest Minnesota

CITY           SKY/WX    TMP DP  RH WIND       PRES   REMARKS
MONTEVIDEO     CLEAR     -8 -11  84 NW6       30.47F WCI -21
GRANITE FALLS  CLEAR     -7 -13  74 W8        30.48S WCI -23
CANBY          CLEAR     -7 -13  73 W5        30.47R WCI -18
MARSHALL       CLEAR     -6 -15  65 NW7       30.45F WCI -20
REDWOOD FALLS  CLEAR     -5 -12  72 W8        30.45F WCI -20
OLIVIA         CLEAR     -4  -9  77 W9        30.45S WCI -20
PIPESTONE      CLEAR     -8 -11  84 NW6       30.39S WCI -21
WINDOM         CLEAR     -6 -11  77 W10       30.41S WCI -23
WORTHINGTON    CLEAR     -6 -15  65 NW7       30.41S WCI -20
JACKSON        CLEAR     -4 -13  65 NW7       30.41S WCI -18
TRACY          CLEAR     -5 -13  70 W6        30.43F WCI -18
SLAYTON        CLEAR    -11 -18  69 CALM      30.40F
$$
MNZ065>067-074>077-082>085-091>093-050800-
   South Central Minnesota

CITY           SKY/WX    TMP DP  RH WIND       PRES   REMARKS
MANKATO        CLEAR     -2  -9  71 NW7       30.43R WCI -16
NEW ULM        CLEAR     -6 -13  71 W9        30.44S WCI -22
ST JAMES       CLEAR     -2  -9  71 W8        30.45S WCI -17
FAIRMONT       CLEAR     -2 -11  65 NW7       30.41R WCI -16
GLENCOE        CLEAR     -3  -8  79 W13       30.43S WCI -22
FARIBAULT      CLEAR     -6 -11  77 W6        30.42S WCI -18
OWATONNA       CLEAR     -4 -11  71 W7        30.41S WCI -18
WASECA         CLEAR     -4  -9  77 W6        30.43R WCI -16
ALBERT LEA     CLEAR     -4  -9  77 W3        30.41R
$$
MNZ078>079-086>088-094>096-050800-
   Southeast Minnesota

CITY           SKY/WX    TMP DP  RH WIND       PRES   REMARKS
ROCHESTER      CLEAR     -6 -13  71 NW10      30.39R WCI -24
RED WING       CLEAR     -6 -17  59 NW3       30.43R
STANTON        CLEAR     -4 -13  66 W5        30.42R WCI -15
DODGE CENTER   PTCLDY    -4 -11  71 W7        30.38R WCI -18
WINONA         CLEAR      3  -8  60 CALM      30.46R
AUSTIN         CLEAR     -4  -9  77 NW6       30.41R WCI -16
PRESTON        CLEAR     -7 -14  72 NW5       30.40R WCI -18
$$
ABBREVIATIONS USED IN REMARKS
   TC - TEMPERATURES IN CELSIUS
  WCI - WIND CHILL INDEX
   HX - HEAT INDEX
  VSB - VISIBILITY
$$


USA.gov is the U.S. government's official web portal to all federal, state and local government web resources and services.